Regional Weather Roundup
Issued by NWS

Home | Current Version | Previous Version | Text Only | Print | Product List | Glossary Off
Versions: 1 2 3 4 5 6 7 8 9 10 11 12 13 14 15 16 17 18 19 20 21 22 23 24 25 26 27 28 29 30 31 32 33 34 35 36 37 38 39 40 41 42 43 44 45 46 47 48 49 50

000
ASUS43 KOAX 052110
RWRNE

WEATHER ROUNDUP FOR NEBRASKA
NATIONAL WEATHER SERVICE OMAHA NE
300 PM CST THU MAR 05 2015

NOTES: SATELLITE DATA IS BEING USED TO AUGMENT CLOUD COVER ABOVE
       12000 FEET.
       "FAIR" INDICATES FEW OR NO CLOUDS BELOW 12,000 FEET WITH NO
       SIGNIFICANT WEATHER AND/OR OBSTRUCTIONS TO VISIBILITY.

  * THESE STATIONS DO NOT REPORT WEATHER SUCH AS RAIN...SNOW OR FOG.

NEZ001>004-019>022-054>056-052200-
NEBRASKA PANHANDLE

CITY           SKY/WX    TMP DP  RH WIND       PRES   REMARKS
SCOTTSBLUFF    MOSUNNY   46  13  26 W15G23    30.18F
ALLIANCE       MOSUNNY   46  14  27 NW18G31   30.14F
CHADRON        SUNNY     40  22  48 W22       30.16F WCI  30
KIMBALL        CLOUDY    39  15  36 NW22G29   30.17S WCI  29
SIDNEY         CLOUDY    43  12  28 N16       30.19F
$$

NEZ057>060-069>072-079>082-052200-
SOUTHWEST NEBRASKA

CITY           SKY/WX    TMP DP  RH WIND       PRES   REMARKS
NORTH PLATTE   MOSUNNY   45   9  23 W12       30.19F
IMPERIAL         N/A     46  13  26 W20G28    30.20F
LEXINGTON      MOSUNNY   42  11  28 SW14      30.24F
MCCOOK         MOSUNNY   48   9  20 SW12G17   30.23F
OGALLALA       PTSUNNY   47  13  25 W15G25    30.17F
$$

NEZ005>010-023>029-035>040-094-052200-
NORTH CENTRAL NEBRASKA

CITY           SKY/WX    TMP DP  RH WIND       PRES   REMARKS
VALENTINE      MOSUNNY   45   6  20 W12       30.14F
AINSWORTH      SUNNY     43   4  20 SW12G17   30.15F
BROKEN BOW     SUNNY     40  10  29 SW14      30.21F WCI  32
O`NEILL        SUNNY     38   4  24 S14G20    30.22F WCI  29
ORD            SUNNY     38   5  25 SW13G22   30.24F WCI  30
THEDFORD       SUNNY     48  10  20 W14G22    30.15F
$$

NEZ041-046>049-061>064-073>077-083>087-052200-
SOUTH CENTRAL NEBRASKA

CITY           SKY/WX    TMP DP  RH WIND       PRES   REMARKS
GRAND ISLAND   SUNNY     38   8  29 SW16      30.31F WCI  29
AURORA         SUNNY     36   6  29 S12       30.32F WCI  28
HASTINGS       SUNNY     37   5  26 SW13G18   30.30F WCI  29
HEBRON         SUNNY     37   2  23 SW9       30.38F WCI  30
HOLDREGE       SUNNY     40   9  27 SW14G20   30.27F WCI  33
KEARNEY *      SUNNY     39  10  30 SW14      30.28F WCI  31
YORK           SUNNY     34   7  32 S10G17    30.35F WCI  26
$$

NEZ011>018-030>034-042>045-052200-
NORTHEAST NEBRASKA

CITY           SKY/WX    TMP DP  RH WIND       PRES   REMARKS
NORFOLK        SUNNY     34   4  28 S17G26    30.31F WCI  23
ALBION         SUNNY     34   3  26 S16       30.30F WCI  24
BLAIR          SUNNY     31   4  31 S12G17    30.40F WCI  21
COLUMBUS *     SUNNY     34   5  29 SW14      30.37F WCI  24
FREMONT        SUNNY     32   3  29 S12       30.40F WCI  23
TEKAMAH        SUNNY     30   3  31 S10G21    30.42F WCI  21
WAYNE          SUNNY     33   2  26 S14G21    30.34F WCI  23
$$

NEZ050>053-065>068-078-088>093-052200-
SOUTHEAST NEBRASKA

CITY           SKY/WX    TMP DP  RH WIND       PRES   REMARKS
LINCOLN        SUNNY     33   5  30 S16       30.41F WCI  23
OMAHA EPPLEY   MOSUNNY   28   4  35 S10       30.44F WCI  19
BEATRICE       SUNNY     33   5  31 S12       30.42F WCI  24
FALLS CITY     SUNNY     30   1  29 SW5       30.47F WCI  25
NEBRASKA CITY  SUNNY     30  -4  22 SW7       30.45F WCI  23
PLATTSMOUTH    SUNNY     29  -1  27 S7G16     30.44F WCI  22
$$

NEZ044-045-051>053-067-052200-
OMAHA AREA

CITY           SKY/WX    TMP DP  RH WIND       PRES   REMARKS
OMAHA EPPLEY   MOSUNNY   28   4  35 S10       30.44F WCI  19
BLAIR          SUNNY     31   4  31 S12G17    30.40F WCI  21
FREMONT        SUNNY     32   3  29 S12       30.40F WCI  23
MILLARD        SUNNY     29   4  33 S7        30.44F WCI  22
OFFUTT AFB     SUNNY     28   3  34 VRB6      30.44F WCI  22
PLATTSMOUTH    SUNNY     29  -1  27 S7G16     30.44F WCI  22
WAHOO          FAIR      32   1  26 S14       30.40F WCI  22
$$


USA.gov is the U.S. government's official web portal to all federal, state and local government web resources and services.